Info for pilots

Image

Airfield Info:

EBUL
N51 08.7 - E003 28.6
ELEV 95' / 29m
RWY 07 / 25
799m * 45m (CIV) - 2980m (MIL)
Ursel Radio 135.130
Tel Aero Club Brugge : +32(0)9 374 25 75
Tel Vliegclub Ursel : +32(0)9 374 12 90

Operational Hours
FRI: 14h00LT - SS+30 MIN
SAT, SUN and HOL: TKOF and LDG: 10h00LT - SS+30 MIN
After 20h00LT to SS+30 MIN: only LDG allowed (PN)

Local Traffic Regulations
The use of the AD is subject to PPR from the OPR;
AD given in concession to the CIV club outside MIL ACT;
Solo training flights can only be performed after two reconnaissance flights with instructor. The solo training flight must be performed within six weeks after the first reconnaissance flight;
Jet aircraft operations not allowed.

Obstacles:
trees between 10M AGL and 22M AGL, caution when crosswind:
North of the RWY, 75M from CL, along the whole length of the RWY;
South of the RWY, 75M from CL, and at THR RWY 25 from THR RWY 07 to 140M east of THR RWY 07



Image

Image

Watch out!

Flight Procedures
RWY 07 and 25 left hand circuit, 1.200 FT QNH

Image

Taxi procedures:
RWY 07 (TKOF):
taxi on the north side of the RWY to the HLDG position of RWY 07

RWY 07 (LDG):
after landing roll out to the second intersection (THR RWY 25), turn left, turn left again, taxi via the TWY to the first intersection, turn left, cross the RWY (check for landing ACFT), taxi on the south side of the RWY to the AD reporting office

RWY 25 (TKOF):
taxi on the north side of the first intersection, turn left, next turn right, taxi via the TWY to the second intersection, turn right, taxi to the HLDG of RWY 25

RWY 25 (LDG):
after landing roll out to the end of the RWY, taxi on the south side of the RWY to the AD reporting office.





Image

Taxi & Circuit?

Image
Image
Image
Image

Current Metars - Auto refresh

EBOS - Oostende
2020/10/24 22:50 EBOS 242250Z 20020G35KT 9999 SCT025 16/11 Q1000 NOSIG


EBAW - Antwerpen
2020/10/24 22:50 EBAW 242250Z AUTO 19019G34KT 170V230 9999 // FEW018/// SCT023/// BKN027/// 15/12 Q1004


EBBR - Brussel
2020/10/24 22:50 EBBR 242250Z 20018G29KT 9999 BKN018 15/12 Q1005 NOSIG

Source : NOAA.GOV

Current TAFs - Auto refresh

EBOS - Oostende
2020/10/24 18:27 TAF EBOS 241710Z 2418/2524 19016G28KT 9999 SCT018 TEMPO 2418/2502 18020G39KT PROB40 TEMPO 2500/2518 4000 SHRA BKN014 BECMG 2504/2506 20014KT

EBAW - Antwerpen
2020/10/24 21:29 TAF EBAW 242020Z 2421/2506 19017G32KT 9999 SCT018 PROB30 TEMPO 2503/2506 4500 RA SHRA BKN014

EBBR - Brussel
2020/10/24 18:27 TAF TAF EBBR 241710Z 2418/2524 20015G25KT 9999 BKN018 PROB30 TEMPO 2421/2503 19018G35KT TEMPO 2502/2518 4000 RA SHRA BKN014 BECMG 2504/2506 20015KT

Source : NOAA.GOV
Image

Webcam

Direction runway 07 :